FENGYUN 1C DEB

Satellite information

Favourite Embed

Satellite Type and Status

DEBRISIN ORBIT

Key statistics

Satellite FENGYUN 1C DEB at a glance.

Uptime

9664

Days in orbit

Revolutions

≈ 14.2

Per day

Orbit

SSO

Sun Synchronous Orbit

Inclination

98.2

Latest

Satellite identification and parameters

Extended collection of information and parameters for FENGYUN 1C DEB.

Object identification

Identified? True

Debris? True

Object name: FENGYUN 1C DEB

International designator: 1999-025ELK

Object number (NORAD): 37694

Object ID (CCSDS): 37694

Country: PEOPLES REPUBLIC OF CHINA (PRC)

Current information (Y/N): Y

RCS size: SMALL

Orbital parameters

Period: 101.705 minutes

Inclination: 98.2017 deg

SMA: 7217.517 km

Apoapsis: 946.092 km

Periapsis: 732.672 km

RAAN: 357.4024 deg

Eccentricy: 0.0147849

Argument of periapsis: 271.7601 deg

Mean anomaly: 268.0135 deg

Mean motion: 14.15862341 rev/day

Mean motion (dot): 0.0000484 rev/day2

B* drag term: 0.0022300976 1/REarth

Two-line elements (TLE)

Creation date: Oct. 12, 2025, 3:37 a.m.

Reference frame: TEME

Reference center: EARTH

Epoch: Oct. 11, 2025, 10:48 p.m. UTC

TLE line 0: 0 FENGYUN 1C DEB

TLE line 1: 1 37694U 99025ELK 25284.95022786 .00004840 00000-0 22301-2 0 9990

TLE line 2: 2 37694 98.2017 357.4024 0147849 271.7601 268.0135 14.15862341508294

Live tracking on map

Real-time ground track for satellite FENGYUN 1C DEB.

In-orbit conjunctions

A list of the most updated potential collisions computed for object FENGYUN 1C DEB.

Target Orbit TCA Probability of collision Miss distance Type
SCOUT D-1 R/B SSO 2025-05-29 05:25:54 0.0001141424 262.0 (m) ROCKET BODY

Associated space launch

Chinese polar orbiting meteorological satellite

FENGYUN 1C DEB was lifted into orbit during the mission ‘Long March 4B | Feng Yun 1C’, on board a Long March 4B space rocket.

The launch took place on May 10, 1999, 1:33 a.m. from Launch Complex 7.

For more information about the launch, click the button.

Launch to space Long March 4B | Feng Yun 1C
Long March 4B | Feng Yun 1C

Agency: N/A

Status: Launch Successful

Launch date: May 10, 1999, 1:33 a.m. UTC

Rocket: Long March 4B

Launch pad: Launch Complex 7

Location: Taiyuan Satellite Launch Center, People's Republic of China

...

Latest news about this satellite

There are no fresh news available about this satellite. Check back as we update our databases every day.


Newsletter sign-up

Weekly statistics, charts and insights to help you stay on top of the space industry.